Regional Weather Roundup
Issued by NWS Goodland, KS

Home | Current Version | Previous Version | Graphics & Text | Print | Product List | Glossary On
Versions: 1 2 3 4 5 6 7 8 9 10 11 12 13 14 15 16 17 18 19 20 21 22 23 24 25 26 27 28 29 30 31 32 33 34 35 36 37 38 39 40 41 42 43 44 45 46 47 48 49 50
000
ASUS43 KGLD 010059
RWRGLD

GOODLAND FORECAST AREA HOURLY WEATHER ROUNDUP
NATIONAL WEATHER SERVICE GOODLAND KS
700 PM MDT SUN AUG 31 2014

...OFFICIAL OBSERVATIONS...

CITY           SKY/WX    TMP DP  RH WIND       PRES   REMARKS
GOODLAND KS    CLOUDY    70  55  59 NE5       29.82F
HILL CITY KS   PTCLDY    77  57  50 NE15      29.74R
IMPERIAL NEB   MOCLDY    73  54  51 N3        29.80S
MCCOOK NEB     CLOUDY    71  60  68 N3        29.73F
AKRON CO       PTCLDY    70  50  49 CALM      29.89F
BURLINGTON CO  CLOUDY    71  50  47 VRB6      29.90R THUNDER
LIMON CO       PTCLDY    69  48  47 E12       29.93R
$$

...UNOFFICIAL OBSERVATIONS...

CITY           SKY/WX    TMP DP  RH WIND       PRES   REMARKS
COLBY KS       CLEAR     73  59  60 N6        29.79R
GOVE KS          N/A     78  32  18 CALM        N/A
NORTON KS      PTCLDY    73  50  43 NE7       29.67F
SHARON SPRINGS   N/A     72  55  54 NE9         N/A
WAKEENEY KS      N/A     75  55  49 MISG        N/A
KIT CARSON CO    N/A     73  51  46 N6G18       N/A
YUMA CO          N/A     69  55  60 CALM        N/A
$$


USA.gov is the U.S. government's official web portal to all federal, state and local government web resources and services.